FW7478 Weather Reports


Display with metric or nautical units.
time (UTC)temp
F
wind
direction
speed
MPH
gust
MPH
rain 1hr
in
rain 24hr
in
rain mn
in
humidity
%
barometer
mb
20260507044519 53 157 3.0 9.0 0.00 0.15 0.15 83 1015.3
20260507043018 53 150 3.0 8.0 0.00 0.15 0.15 82 1015.3
20260507041516 54 161 4.0 7.0 0.00 0.15 0.15 81 1015.2
20260507040016 54 171 3.0 7.0 0.00 0.15 0.15 80 1015.2
20260507034519 54 150 5.0 9.0 0.00 0.15 0.15 80 1015.1
20260507033015 54 154 2.0 6.0 0.00 0.15 0.15 81 1015.1
20260507031513 55 156 2.0 7.0 0.00 0.15 0.15 80 1015.2
20260507030013 55 155 3.0 9.0 0.00 0.15 0.15 80 1015.0
20260507024511 54 135 1.0 3.0 0.00 0.15 0.15 80 1014.7
20260507023010 55 135 0.0 2.0 0.00 0.15 0.15 79 1014.5
20260507021514 56 134 0.0 2.0 0.00 0.15 0.15 76 1014.3
20260507020007 57 132 2.0 7.0 0.00 0.15 0.15 75 1014.0
20260507014507 57 126 2.0 4.0 0.00 0.15 0.15 74 1014.1
20260507013004 58 127 2.0 9.0 0.00 0.15 0.15 72 1013.7
20260507011503 59 115 2.0 7.0 0.00 0.15 0.15 72 1013.7
20260507010001 60 107 2.0 10.0 0.00 0.15 0.15 70 1013.5
20260507004501 61 136 3.0 10.0 0.00 0.15 0.15 70 1013.4
20260507003100 61 123 5.0 12.0 0.00 0.15 0.15 68 1013.2
20260507001616 62 121 4.0 13.0 0.00 0.15 0.15 68 1012.9
20260506234603 64 112 6.0 12.0 0.00 0.15 0.15 66 1012.5
20260506233058 65 129 4.0 13.0 0.00 0.15 0.15 64 1012.3
20260506231558 65 104 5.0 10.0 0.00 0.15 0.15 64 1012.1
20260506230057 67 98 4.0 15.0 0.00 0.15 0.15 62 1012.0
20260506224556 68 119 5.0 12.0 0.00 0.15 0.15 61 1011.7
20260506223055 68 132 6.0 15.0 0.00 0.15 0.15 60 1011.7
20260506221554 68 102 8.0 12.0 0.00 0.15 0.15 60 1011.4
20260506220106 68 134 6.0 10.0 0.00 0.15 0.15 60 1011.3
20260506214553 68 132 6.0 13.0 0.00 0.15 0.15 60 1011.2
20260506213100 68 123 3.0 13.0 0.00 0.15 0.15 61 1011.3
20260506211550 68 109 2.0 10.0 0.00 0.15 0.15 61 1011.4
20260506210059 66 109 7.0 11.0 0.00 0.15 0.15 63 1011.5
20260506204550 66 118 4.0 9.0 0.00 0.15 0.15 66 1011.7
20260506203128 65 128 6.0 12.0 0.00 0.15 0.15 66 1011.9
20260506201546 63 169 6.0 12.0 0.00 0.15 0.15 69 1012.0
20260506200047 62 153 5.0 11.0 0.00 0.15 0.15 66 1012.2
20260506194540 62 117 6.0 13.0 0.00 0.15 0.15 68 1012.3
20260506193037 61 130 4.0 10.0 0.00 0.15 0.15 71 1012.6
20260506191534 60 94 4.0 13.0 0.00 0.15 0.15 70 1012.6
20260506190044 60 145 8.0 13.0 0.00 0.15 0.15 68 1012.6
20260506184531 59 84 5.0 11.0 0.00 0.15 0.15 72 1012.7
20260506183030 58 128 8.0 14.0 0.00 0.15 0.15 72 1012.9
20260506181530 57 122 6.0 13.0 0.00 0.15 0.15 75 1013.0
20260506180028 57 113 5.0 12.0 0.00 0.15 0.15 77 1012.9
20260506174528 55 94 5.0 10.0 0.00 0.15 0.15 78 1013.2
20260506173032 54 107 4.0 13.0 0.00 0.15 0.15 82 1013.1
20260506171525 53 69 6.0 14.0 0.00 0.15 0.15 82 1013.2
20260506170024 53 121 4.0 15.0 0.00 0.15 0.15 83 1013.1
20260506164524 52 94 3.0 15.0 0.00 0.15 0.15 84 1012.9
20260506163039 52 90 6.0 14.0 0.00 0.15 0.15 86 1012.8
20260506161526 51 115 6.0 11.0 0.00 0.15 0.15 87 1012.8
20260506160023 50 82 5.0 15.0 0.00 0.15 0.15 89 1012.6
20260506154530 49 97 5.0 14.0 0.00 0.15 0.15 89 1012.3
20260506153022 50 121 9.0 15.0 0.00 0.15 0.15 90 1012.1
20260506151519 50 104 6.0 23.0 0.00 0.15 0.15 90 1011.9
20260506150018 49 134 6.0 17.0 0.01 0.15 0.15 91 1011.3
20260506144517 49 107 10.0 18.0 0.04 0.15 0.15 91 1011.4
20260506143016 49 136 8.0 16.0 0.06 0.15 0.15 91 1011.4
20260506141513 49 130 8.0 15.0 0.06 0.15 0.15 91 1011.3
20260506140018 49 122 6.0 12.0 0.09 0.14 0.14 91 1012.2
20260506134510 48 107 3.0 8.0 0.07 0.11 0.11 90 1013.1
20260506133007 48 90 2.0 12.0 0.07 0.09 0.09 90 1012.9
20260506131505 48 109 8.0 12.0 0.09 0.09 0.09 89 1011.5
20260506130003 48 107 2.0 8.0 0.05 0.05 0.05 89 1012.0
20260506124501 48 95 6.0 14.0 0.04 0.04 0.04 88 1010.7
20260506123112 49 136 7.0 12.0 0.02 0.02 0.02 87 1011.0
20260506121611 49 103 4.0 14.0 0.00 0.00 0.00 86 1011.8
20260506120052 49 132 4.0 17.0 0.00 0.00 0.00 85 1009.8
20260506114550 50 95 9.0 16.0 0.00 0.00 0.00 85 1009.7
20260506113047 50 71 5.0 15.0 0.00 0.00 0.00 84 1009.8
20260506111544 50 137 6.0 14.0 0.00 0.00 0.00 85 1009.9
20260506110043 51 130 6.0 14.0 0.00 0.00 0.00 85 1009.7
20260506104541 51 117 5.0 15.0 0.00 0.00 0.00 85 1009.6
20260506103038 50 132 5.0 10.0 0.00 0.00 0.00 85 1009.4
20260506101535 51 98 4.0 10.0 0.00 0.00 0.00 85 1009.2
20260506100036 50 101 3.0 11.0 0.00 0.00 0.00 85 1008.6
20260506094530 50 127 6.0 12.0 0.00 0.00 0.00 86 1008.2
20260506093027 50 119 5.0 9.0 0.00 0.00 0.00 86 1008.2
20260506091524 50 101 4.0 10.0 0.00 0.00 0.00 86 1008.2
20260506090024 50 124 4.0 9.0 0.00 0.00 0.00 86 1008.0
20260506084530 51 105 4.0 8.0 0.00 0.00 0.00 86 1007.9
20260506083024 51 111 3.0 9.0 0.00 0.00 0.00 86 1007.8
20260506081516 51 119 4.0 8.0 0.00 0.00 0.00 85 1008.0
20260506073009 53 100 5.0 12.0 0.00 0.00 0.00 84 1007.6
20260506071505 53 113 4.0 12.0 0.00 0.00 0.00 84 1007.7
20260506061554 55 106 4.0 10.0 0.00 0.00 0.00 81 1007.4